Location: North Evanston
(42.0634°N, 87.6976°W)
Time: 20:44:04
(UTC+00:00)

Injun/Solrad 3 - Pass Details

Date: 13 May 2026
Orbit: 867 x 989 km, 66.8° (Epoch: 6 June)

Event Time Altitude Azimuth Distance (km) Brightness Sun altitude
Rises 06:55:48 0° 328° (NNW) 3,683 11.6 -27.5°
Reaches altitude 10° 06:58:21 10° 328° (NNW) 2,742 10.8 -27.3°
Maximum altitude 07:04:48 81° 243° (WSW) 1,005 7.9 -26.9°
Enters shadow 07:05:43 67° 175° (S) 1,069 7.9 -26.9°
Drops below altitude 10° 07:11:14 10° 156° (SSE) 2,734 - -26.5°
Sets 07:13:47 0° 156° (SSE) 3,672 - -26.3°
